DECAYED

STARLINK-1342, 45558 (Decayed)

Orbit data source: Space-Track

STARLINK-1342, 45558 was a payload satellite owned by SpaceX/Seattle (US) in LEO that was launched on Wed, 22 Apr 2020 UTC via an FALCON 9 launch vehicle from the Air Force Eastern Test Range (AFETR). Payload-class satellites include a variety of spacecraft equipped with specific instruments for various scientific and technological missions. These include communications satellites like Starlink; space stations such as the ISS; scientific satellites like the Hubble; Earth observation satellites from companies like Planet Labs, Umbra, and HawkEye 360; GPS; miniature CubeSats for education and research; and military/defense satellites.

Not visible in the next 10 days
Identifier
45558, 2020-025AD
Orbit
Decayed
Country
Flag of USUS
Related business
Manufacturer
SpaceX/Seattle
Mission
Decayed Commercial Communications
Bus & Motor
STARLINK, Unknown motor
Mass
260 kg wet, ~248 kg dry
Launch date (UTC)
2020-04-22 (6 years ago)
Launch vehicle
FALCON 9
Launch site
Air Force Eastern Test Range (AFETR)
Object type
Payload
Rocket body
Debris
Shape & HBR
Box + 1 Pan, 10.1 m
Radar Cross Section
13.562 m², Large (>1 m²)

Expand to show TLE details & history
Last TLE update: 3 weeks ago

TLE from 3 weeks ago
0 STARLINK-1342
1 45558U 20025AD  25277.60782554  .05941265  10304+0  57446-2 0  9993
2 45558  53.0417  10.3949 0004306 346.2734  13.8185 16.16137913302635
Epoch: 2025-10-04T14:35Z
TLE epoch observation values (Epoch: 2025-10-04T14:35:16.126Z)
Latitude
0.00001°
Longitude
138.04037°
Altitude
228.215 km
Speed
7.773 km/s
True Right ascension
00h 41m 34s
True Declination
0° 00' 00"
Sunlit
Object was in full shadow at epoch
Visualization orbit readout
Latitude
Unknown
Longitude
Unknown
Altitude
Unknown
Speed
Unknown
Apparent Right ascension
Unknown
Apparent Declination
Unknown
Sunlit
N/A
Visualization observer readout
Local Sidereal Time
11:27:37
Azimuth
Unknown
Elevation
Unknown
Doppler factor
Unknown
Orbital elements
Apogee altitude
233.19 km
Perigee altitude
227.499 km
Semi-major axis
6,608.481 km
Eccentricity
0.00043
Inclination
53.0417°
RAAN
10.3949°
Arg. of periapsis
346.2734°
True anomaly
13.83029°
Mean anomaly
13.8185°
Eccentric anomaly
13.8244°
Mean motion
4.04009 °/min
Orbital period
89.11 mins
BSTAR
0.0057446
Loading maneuver chart data...
Computing Atmospheric mass density...
Loading historical data...
Loading historical data...
Loading historical data...
Loading historical data...
Loading historical data...
Loading historical data...
Loading historical data...

Documentation

Showing up to 5 results
|